TimeEDT,TemperatureF,Dew PointF,Humidity,Sea Level PressureIn,VisibilityMPH,Wind Direction,Wind SpeedMPH,Gust SpeedMPH,PrecipitationIn,Events,Conditions,WindDirDegrees,DateUTC
12:58 AM,59.5,59.0,98,30.24,10.0,East,3.5,-,N/A,,Clear,90,2013-04-17 04:58:00
1:58 AM,58.6,58.3,99,30.23,9.0,SE,1.2,-,N/A,,Clear,130,2013-04-17 05:58:00
2:58 AM,57.2,57.2,100,30.23,2.0,Calm,Calm,-,N/A,,Clear,0,2013-04-17 06:58:00
3:08 AM,57.2,57.2,100,30.21,3.0,Calm,Calm,-,N/A,,Clear,0,2013-04-17 07:08:00
3:28 AM,57.2,57.2,100,30.21,0.8,Calm,Calm,-,N/A,,Clear,0,2013-04-17 07:28:00
3:38 AM,57.2,57.2,100,30.22,8.0,Calm,Calm,-,N/A,,Clear,0,2013-04-17 07:38:00
3:48 AM,57.2,57.2,100,30.22,0.8,NNW,1.2,-,N/A,,Clear,330,2013-04-17 07:48:00
3:59 AM,55.4,55.4,100,30.21,0.5,Calm,Calm,-,N/A,Fog,Fog,0,2013-04-17 07:59:00
4:01 AM,55.4,55.4,100,30.21,0.5,Calm,Calm,-,N/A,Fog,Fog,0,2013-04-17 08:01:00
4:02 AM,55.4,55.4,100,30.21,0.5,Calm,Calm,-,N/A,Fog,Fog,0,2013-04-17 08:02:00
4:06 AM,57.2,57.2,100,30.21,0.8,Calm,Calm,-,N/A,,Clear,360,2013-04-17 08:06:00
4:07 AM,57.2,57.2,100,30.21,0.8,Calm,Calm,-,N/A,,Clear,350,2013-04-17 08:07:00
4:08 AM,57.2,57.2,100,30.21,1.0,Calm,Calm,-,N/A,,Clear,0,2013-04-17 08:08:00
4:10 AM,57.2,57.2,100,30.21,1.5,Calm,Calm,-,N/A,,Clear,0,2013-04-17 08:10:00
4:11 AM,57.2,57.2,100,30.21,1.8,Calm,Calm,-,N/A,,Clear,0,2013-04-17 08:11:00
4:12 AM,57.2,57.2,100,30.21,2.0,Calm,Calm,-,N/A,,Clear,0,2013-04-17 08:12:00
4:14 AM,57.2,57.2,100,30.22,4.0,Calm,Calm,-,N/A,,Clear,0,2013-04-17 08:14:00
4:36 AM,55.4,55.4,100,30.22,0.8,Calm,Calm,-,N/A,,Clear,0,2013-04-17 08:36:00
4:46 AM,55.4,55.4,100,30.22,0.5,Calm,Calm,-,N/A,Fog,Fog,0,2013-04-17 08:46:00
4:58 AM,55.8,55.8,100,30.23,0.5,NNW,1.2,-,N/A,Fog,Fog,330,2013-04-17 08:58:00
5:08 AM,55.4,55.4,100,30.22,0.8,NNW,2.3,-,N/A,,Clear,330,2013-04-17 09:08:00
5:18 AM,53.6,53.6,100,30.22,0.2,NNW,1.2,-,N/A,Fog,Fog,330,2013-04-17 09:18:00
5:28 AM,53.6,53.6,100,30.22,0.5,Calm,Calm,-,N/A,Fog,Fog,350,2013-04-17 09:28:00
5:38 AM,55.4,55.4,100,30.22,0.2,Calm,Calm,-,N/A,Fog,Fog,0,2013-04-17 09:38:00
5:48 AM,55.4,55.4,100,30.22,0.5,Calm,Calm,-,N/A,Fog,Fog,0,2013-04-17 09:48:00
5:58 AM,55.4,55.4,100,30.23,1.5,Calm,Calm,-,N/A,,Clear,0,2013-04-17 09:58:00
6:08 AM,55.4,55.4,100,30.23,1.8,Calm,Calm,-,N/A,,Clear,0,2013-04-17 10:08:00
6:28 AM,53.6,53.6,100,30.23,0.8,Calm,Calm,-,N/A,,Clear,350,2013-04-17 10:28:00
6:58 AM,54.0,54.0,100,30.25,1.0,Calm,Calm,-,N/A,,Scattered Clouds,0,2013-04-17 10:58:00
7:07 AM,53.6,53.6,100,30.25,2.0,Calm,Calm,-,N/A,,Scattered Clouds,0,2013-04-17 11:07:00
7:18 AM,55.4,55.4,100,30.25,3.0,Calm,Calm,-,N/A,,Scattered Clouds,340,2013-04-17 11:18:00
7:58 AM,58.1,58.1,100,30.26,5.0,Calm,Calm,-,N/A,,Scattered Clouds,0,2013-04-17 11:58:00
8:58 AM,64.4,64.4,100,30.26,10.0,WNW,3.5,-,N/A,,Scattered Clouds,290,2013-04-17 12:58:00
9:58 AM,70.0,62.4,77,30.26,10.0,Variable,3.5,-,N/A,,Scattered Clouds,0,2013-04-17 13:58:00
10:58 AM,74.5,62.1,65,30.25,10.0,WSW,5.8,-,N/A,,Partly Cloudy,240,2013-04-17 14:58:00
11:58 AM,76.5,59.9,56,30.23,10.0,Variable,1.2,-,N/A,,Partly Cloudy,0,2013-04-17 15:58:00
12:58 PM,79.7,58.8,49,30.19,10.0,Calm,Calm,-,N/A,,Partly Cloudy,0,2013-04-17 16:58:00
1:58 PM,81.3,60.4,49,30.19,10.0,Variable,4.6,-,N/A,,Scattered Clouds,0,2013-04-17 17:58:00
2:58 PM,83.1,61.5,48,30.17,10.0,Variable,3.5,-,N/A,,Scattered Clouds,0,2013-04-17 18:58:00
3:58 PM,82.9,60.1,46,30.14,10.0,SSE,8.1,-,N/A,,Scattered Clouds,150,2013-04-17 19:58:00
4:58 PM,82.9,60.3,46,30.14,10.0,SE,8.1,-,N/A,,Mostly Cloudy,130,2013-04-17 20:58:00
5:58 PM,81.9,60.6,48,30.13,10.0,South,8.1,-,N/A,,Mostly Cloudy,170,2013-04-17 21:58:00
6:58 PM,79.7,61.2,53,30.14,10.0,SSE,6.9,-,N/A,,Mostly Cloudy,150,2013-04-17 22:58:00
7:58 PM,75.2,60.8,61,30.15,10.0,SE,4.6,-,N/A,,Mostly Cloudy,140,2013-04-17 23:58:00
8:58 PM,71.2,61.0,70,30.15,10.0,ESE,4.6,-,N/A,,Mostly Cloudy,120,2013-04-18 00:58:00
9:58 PM,69.4,61.3,75,30.17,10.0,SE,5.8,-,N/A,,Overcast,130,2013-04-18 01:58:00
10:58 PM,67.3,60.6,79,30.18,10.0,SSE,4.6,-,N/A,,Overcast,150,2013-04-18 02:58:00
11:58 PM,65.1,59.0,81,30.17,10.0,ESE,4.6,-,N/A,,Clear,120,2013-04-18 03:58:00